When you browse on this site, cookies collect data to enhance your experience and personalize the content and advertising you see.
Visit our Privacy Policy to learn more. By continuing to use the site, you agree to this use of cookies and data.

Stündliche Wetter Santa Ana Hueytlalpan

Heute, 14 Juli, Dienstag

Zeit Temperatur Niederschläge Wind Luftdruck Luftfeuchtigkeit
00:00 +13°C° 0.1 mm 1 m/S 589 mmHg 91%
01:00 +13°C° 0.1 mm 1 m/S 588 mmHg 90%
02:00 +13°C° 0.1 mm 1 m/S 588 mmHg 89%
03:00 +13°C° 0 mm 1 m/S 588 mmHg 88%
04:00 +13°C° 0 mm 1 m/S 588 mmHg 87%
05:00 +13°C° 0 mm 1 m/S 588 mmHg 87%
06:00 +15°C° 0 mm 1 m/S 589 mmHg 78%
07:00 +19°C° 0 mm 1 m/S 591 mmHg 70%
08:00 +22°C° 0 mm 1 m/S 592 mmHg 62%
09:00 +22°C° 0.1 mm 1 m/S 592 mmHg 61%
10:00 +23°C° 0.1 mm 2 m/S 592 mmHg 59%
11:00 +24°C° 0.1 mm 3 m/S 593 mmHg 58%
12:00 +22°C° 0.8 mm 3 m/S 592 mmHg 65%
13:00 +21°C° 0.8 mm 3 m/S 591 mmHg 72%
14:00 +21°C° 0.8 mm 3 m/S 590 mmHg 80%
15:00 +20°C° 0.4 mm 3 m/S 590 mmHg 81%
16:00 +19°C° 0.4 mm 2 m/S 589 mmHg 82%
17:00 +19°C° 0.4 mm 2 m/S 589 mmHg 84%
18:00 +17°C° 0.1 mm 2 m/S 589 mmHg 88%
19:00 +16°C° 0.1 mm 1 m/S 589 mmHg 93%
20:00 +15°C° 0.1 mm 1 m/S 589 mmHg 97%
21:00 +15°C° 0 mm 1 m/S 589 mmHg 97%
22:00 +14°C° 0 mm 1 m/S 589 mmHg 97%
23:00 +14°C° 0 mm 1 m/S 589 mmHg 96%

Morgen, 15 Juli, Mittwoch

Zeit Temperatur Niederschläge Wind Luftdruck Luftfeuchtigkeit
00:00 +14°C° 0 mm 1 m/S 589 mmHg 95%
01:00 +13°C° 0 mm 1 m/S 588 mmHg 94%
02:00 +13°C° 0 mm 1 m/S 588 mmHg 94%
03:00 +13°C° 0 mm 1 m/S 588 mmHg 93%
04:00 +13°C° 0 mm 1 m/S 588 mmHg 92%
05:00 +13°C° 0 mm 1 m/S 588 mmHg 92%
06:00 +15°C° 0 mm 1 m/S 589 mmHg 83%
07:00 +19°C° 0 mm 1 m/S 590 mmHg 75%
08:00 +19°C° 0 mm 0 m/S 592 mmHg 67%
09:00 +22°C° 0.2 mm 1 m/S 592 mmHg 67%
10:00 +23°C° 0.2 mm 2 m/S 592 mmHg 66%
11:00 +22°C° 0.2 mm 3 m/S 592 mmHg 66%
12:00 +21°C° 1.4 mm 3 m/S 591 mmHg 72%
13:00 +20°C° 1.4 mm 3 m/S 590 mmHg 79%
14:00 +19°C° 1.4 mm 2 m/S 589 mmHg 86%
15:00 +19°C° 0.5 mm 2 m/S 589 mmHg 86%
16:00 +18°C° 0.5 mm 2 m/S 589 mmHg 87%
17:00 +18°C° 0.5 mm 2 m/S 589 mmHg 88%
18:00 +17°C° 0.2 mm 2 m/S 589 mmHg 91%
19:00 +16°C° 0.2 mm 1 m/S 589 mmHg 95%
20:00 +15°C° 0.2 mm 1 m/S 589 mmHg 98%
21:00 +15°C° 0 mm 1 m/S 589 mmHg 97%
22:00 +15°C° 0 mm 1 m/S 590 mmHg 96%
23:00 +14°C° 0 mm 0 m/S 590 mmHg 95%

übermorgen, 16 Juli, Donnerstag

Zeit Temperatur Niederschläge Wind Luftdruck Luftfeuchtigkeit
00:00 +13°C° 0 mm 0 m/S 589 mmHg 96%
01:00 +13°C° 0 mm 0 m/S 589 mmHg 96%
02:00 +12°C° 0 mm 0 m/S 588 mmHg 96%
03:00 +13°C° 0 mm 1 m/S 588 mmHg 95%
04:00 +13°C° 0 mm 1 m/S 588 mmHg 94%
05:00 +12°C° 0 mm 1 m/S 588 mmHg 93%
06:00 +15°C° 0 mm 1 m/S 589 mmHg 85%
07:00 +18°C° 0 mm 1 m/S 591 mmHg 78%
08:00 +20°C° 0 mm 1 m/S 592 mmHg 70%
09:00 +20°C° 0 mm 2 m/S 592 mmHg 67%
10:00 +21°C° 0 mm 2 m/S 592 mmHg 65%
11:00 +22°C° 0 mm 3 m/S 593 mmHg 62%
12:00 +21°C° 0.4 mm 3 m/S 592 mmHg 66%
13:00 +21°C° 0.4 mm 3 m/S 591 mmHg 70%
14:00 +20°C° 0.4 mm 3 m/S 591 mmHg 74%
15:00 +19°C° 0.5 mm 3 m/S 590 mmHg 78%
16:00 +19°C° 0.5 mm 3 m/S 590 mmHg 81%
17:00 +18°C° 0.5 mm 2 m/S 589 mmHg 84%
18:00 +17°C° 0.1 mm 2 m/S 589 mmHg 88%
19:00 +15°C° 0.1 mm 1 m/S 589 mmHg 92%
20:00 +14°C° 0.1 mm 1 m/S 589 mmHg 96%
21:00 +14°C° 0 mm 1 m/S 589 mmHg 96%
22:00 +14°C° 0 mm 1 m/S 590 mmHg 96%
23:00 +13°C° 0 mm 1 m/S 590 mmHg 96%

17 Juli, Freitag

Zeit Temperatur Niederschläge Wind Luftdruck Luftfeuchtigkeit
00:00 +13°C° 0 mm 1 m/S 589 mmHg 96%
01:00 +13°C° 0 mm 1 m/S 589 mmHg 95%
02:00 +13°C° 0 mm 1 m/S 589 mmHg 95%
03:00 +12°C° 0 mm 1 m/S 589 mmHg 93%
04:00 +12°C° 0 mm 1 m/S 588 mmHg 91%
05:00 +11°C° 0 mm 1 m/S 588 mmHg 89%
06:00 +14°C° 0 mm 1 m/S 590 mmHg 79%
07:00 +15°C° 0 mm 0 m/S 591 mmHg 68%
08:00 +18°C° 0 mm 0 m/S 592 mmHg 57%
09:00 +21°C° 0 mm 1 m/S 593 mmHg 55%
10:00 +21°C° 0 mm 2 m/S 593 mmHg 53%
11:00 +22°C° 0 mm 3 m/S 593 mmHg 51%
12:00 +21°C° 0.9 mm 3 m/S 592 mmHg 61%
13:00 +20°C° 0.9 mm 3 m/S 591 mmHg 71%
14:00 +19°C° 0.9 mm 3 m/S 590 mmHg 80%
15:00 +18°C° 1.1 mm 3 m/S 590 mmHg 83%
16:00 +17°C° 1.1 mm 2 m/S 589 mmHg 85%
17:00 +16°C° 1.1 mm 2 m/S 589 mmHg 88%
18:00 +16°C° 0.7 mm 2 m/S 589 mmHg 90%
19:00 +15°C° 0.7 mm 2 m/S 589 mmHg 91%
20:00 +14°C° 0.7 mm 2 m/S 589 mmHg 93%
21:00 +14°C° 0 mm 1 m/S 589 mmHg 91%
22:00 +14°C° 0 mm 1 m/S 589 mmHg 89%
23:00 +14°C° 0 mm 1 m/S 589 mmHg 87%

18 Juli, Samstag

Zeit Temperatur Niederschläge Wind Luftdruck Luftfeuchtigkeit
00:00 +13°C° 0 mm 1 m/S 589 mmHg 86%
01:00 +13°C° 0 mm 1 m/S 589 mmHg 86%
02:00 +13°C° 0 mm 1 m/S 588 mmHg 85%
03:00 +13°C° 0 mm 1 m/S 588 mmHg 84%
04:00 +12°C° 0 mm 1 m/S 588 mmHg 84%
05:00 +12°C° 0 mm 1 m/S 588 mmHg 84%
06:00 +14°C° 0 mm 1 m/S 589 mmHg 76%
07:00 +16°C° 0 mm 1 m/S 590 mmHg 69%
08:00 +19°C° 0 mm 1 m/S 592 mmHg 62%
09:00 +19°C° 0 mm 2 m/S 592 mmHg 58%
10:00 +20°C° 0 mm 3 m/S 592 mmHg 54%
11:00 +21°C° 0 mm 3 m/S 592 mmHg 51%
12:00 +21°C° 0 mm 4 m/S 592 mmHg 53%
13:00 +21°C° 0 mm 4 m/S 591 mmHg 56%
14:00 +21°C° 0 mm 5 m/S 591 mmHg 59%
15:00 +20°C° 0.1 mm 4 m/S 590 mmHg 65%
16:00 +18°C° 0.1 mm 3 m/S 589 mmHg 70%
17:00 +17°C° 0.1 mm 3 m/S 589 mmHg 76%
18:00 +16°C° 0.1 mm 2 m/S 589 mmHg 83%
19:00 +15°C° 0.1 mm 2 m/S 589 mmHg 90%
20:00 +13°C° 0.1 mm 1 m/S 589 mmHg 97%
21:00 +13°C° 0 mm 1 m/S 589 mmHg 96%
22:00 +13°C° 0 mm 1 m/S 589 mmHg 95%
23:00 +12°C° 0 mm 1 m/S 589 mmHg 94%

19 Juli, Sonntag

Zeit Temperatur Niederschläge Wind Luftdruck Luftfeuchtigkeit
00:00 +12°C° 0 mm 1 m/S 588 mmHg 92%
01:00 +11°C° 0 mm 1 m/S 588 mmHg 89%
02:00 +11°C° 0 mm 1 m/S 587 mmHg 87%
03:00 +11°C° 0 mm 1 m/S 587 mmHg 84%
04:00 +11°C° 0 mm 1 m/S 587 mmHg 81%
05:00 +11°C° 0 mm 1 m/S 587 mmHg 78%
06:00 +13°C° 0 mm 1 m/S 589 mmHg 69%
07:00 +16°C° 0 mm 1 m/S 590 mmHg 61%
08:00 +20°C° 0 mm 1 m/S 592 mmHg 52%
09:00 +21°C° 0 mm 1 m/S 592 mmHg 51%
10:00 +21°C° 0 mm 2 m/S 592 mmHg 51%
11:00 +22°C° 0 mm 3 m/S 592 mmHg 51%
12:00 +21°C° 0.2 mm 3 m/S 591 mmHg 58%
13:00 +20°C° 0.2 mm 3 m/S 591 mmHg 65%
14:00 +20°C° 0.2 mm 3 m/S 590 mmHg 72%
15:00 +19°C° 0.4 mm 3 m/S 589 mmHg 77%
16:00 +18°C° 0.4 mm 3 m/S 589 mmHg 82%
17:00 +17°C° 0.4 mm 2 m/S 588 mmHg 86%
18:00 +16°C° 0.1 mm 2 m/S 589 mmHg 90%
19:00 +15°C° 0.1 mm 1 m/S 589 mmHg 93%
20:00 +14°C° 0.1 mm 1 m/S 589 mmHg 96%
21:00 +14°C° 0 mm 1 m/S 589 mmHg 96%
22:00 +14°C° 0 mm 1 m/S 589 mmHg 95%
23:00 +14°C° 0 mm 1 m/S 589 mmHg 95%
Mehr zeigen